Simultaneous Nadir Overpasses (SNOs) Predictions

Prediction of SNOs between GOES-15 and TERRA Satellite Orbit:

Table of predicted SNOs for the next 14.0 days since TLE Epoch: 8/23/2014
Index Date Time (GOES-15) GOES-15 Lat,Lon TERRA Lat,Lon Distance(km) Time Diff (sec)
1 08/24/2014 19:19:19 0.17,-135.36 -0.38,-132.63 309.59 80
2 08/25/2014 07:43:23 -0.20,-135.33 -0.75,-137.82 283.13 80
3 08/27/2014 07:28:33 -0.19,-135.29 -0.10,-134.87 48.18 80
4 08/29/2014 07:16:22 -0.18,-135.25 0.50,-131.91 378.99 80
5 08/29/2014 19:40:18 0.21,-135.25 0.58,-137.07 206.48 80
6 08/31/2014 19:25:27 0.21,-135.20 -0.03,-134.12 123.40 80
7 09/01/2014 07:49:30 -0.23,-135.17 -1.10,-139.30 469.91 80
8 09/02/2014 19:13:16 0.21,-135.14 -0.64,-131.16 452.50 80
9 09/03/2014 07:37:19
